Location: 22
(39.7117°N, 89.5929°W)
Time: 20:08:27
(UTC-05:00)

Vanguard 3 - Pass Details

Date: 01 February 2023
Orbit: 508 x 3249 km, 33.4° (Epoch: 30 March)

Event Time Altitude Azimuth Distance (km) Brightness Sun altitude
Rises 17:34:35 0° 211° (SSW) 3,853 11.5 -3.8°
Reaches altitude 10° 17:37:11 10° 200° (SSW) 3,204 10.8 -4.3°
Maximum altitude 17:44:21 31° 141° (SE) 2,713 9.6 -5.6°
Drops below altitude 10° 17:55:35 10° 87° (E) 5,135 10.6 -7.7°
Enters shadow 17:56:48 - 85° (E) 5,452 10.7 -7.9°
Sets 18:01:06 0° 79° (E) 6,564 - -8.7°
